Regional Weather Roundup
Issued by NWS Memphis, TN

Home | Current Version | Previous Version | Text Only | Print | Product List | Glossary On
Versions: 1 2 3 4 5 6 7 8 9 10 11 12 13 14 15 16 17 18 19 20 21 22 23 24 25 26 27 28 29 30 31 32 33 34 35 36 37 38 39 40 41 42 43 44 45 46 47 48 49 50
000
ASUS44 KMEG 020910
RWRMEG
MEMPHIS CWA HOURLY WEATHER ROUNDUP
NATIONAL WEATHER SERVICE MEMPHIS TN
400 AM CDT THU APR 02 2015

...WEST TENNESSEE...

CITY           SKY/WX    TMP DP  RH WIND       PRES   REMARKS
MEMPHIS INTL   CLOUDY    69  59  70 S12       29.92F
NWS MEMPHIS      N/A     69 N/A N/A MISG        N/A
JACKSON        CLOUDY    66  58  75 S13       29.93S
LEXINGTON      CLEAR     64  57  77 S10       29.94S
SAVANNAH       CLEAR     66  59  77 S8        29.98R
DYERSBURG      CLOUDY    63  50  63 CALM      29.92F
UNION CITY     CLOUDY    61  61 100 S5        29.91S
PARIS          MOCLDY    64  55  72 W12       29.94R
HUNTINGDON     CLOUDY    64  58  81 S12       29.92F


...EASTERN ARKANSAS...

CITY           SKY/WX    TMP DP  RH WIND       PRES   REMARKS
JONESBORO      NOT AVBL
WEST MEMPHIS   CLOUDY    67  61  81 S14       29.91R
BATESVILLE     PTCLDY    63  59  88 S7G16     29.86S
NEWPORT        MOCLDY    63  61  93 S13       29.88S
BLYTHEVILLE    CLOUDY    62  62 100 S7        29.89F
SEARCY         CLOUDY    63  61  93 S7        29.89F
STUTTGART      PTCLDY    68  61  77 S15       29.90F
PINE BLUFF     CLOUDY    68  63  84 S13G20    29.91F
MONTICELLO     CLOUDY    68  63  84 S9        29.93F


...NORTH MISSISSIPPI...

CITY           SKY/WX    TMP DP  RH WIND       PRES   REMARKS
TUPELO         PTCLDY    62  57  83 S9        29.99F
OXFORD         PTCLDY    64  57  77 S9        29.99S
OLIVE BRANCH   CLEAR     66  64  94 S13       29.93F
TUNICA         CLOUDY    66  61  82 S12       29.94S
CLARKSDALE       N/A     66  63  88 S12       29.95S
CORINTH        PTCLDY    64  59  82 S10       29.97R
GREENWOOD      MOCLDY    67  59  75 S10       29.99S
COLUMBUS       MOCLDY    64  59  82 S6        30.02S
STARKVILLE     FAIR      66  61  82 S3        30.02S
GOLDEN TRIANGL CLOUDY    64  59  82 S8        30.02S


...SOUTHEAST MISSOURI...

CITY           SKY/WX    TMP DP  RH WIND       PRES   REMARKS
WEST PLAINS    CLEAR     59  56  89 S8        29.83F
POPLAR BLUFF   LGT RAIN  61  57  87 SW7       29.84F
CAPE GIRARDEAU CLOUDY    62  58  86 S13       29.85F


...NORTHWEST ALABAMA...

CITY           SKY/WX    TMP DP  RH WIND       PRES   REMARKS
MUSCLE SHOALS  PTCLDY    64  56  75 S7        30.02S


...MIDDLE TENNESSEE...

CITY           SKY/WX    TMP DP  RH WIND       PRES   REMARKS
NASHVILLE      MOCLDY    63  49  60 S6        29.97F
CLARKSVILLE    CLOUDY    64  47  53 S6        29.92F
COLUMBIA       CLEAR     66  63  88 S10       29.97S


...WESTERN KENTUCKY...

CITY           SKY/WX    TMP DP  RH WIND       PRES   REMARKS
PADUCAH        LGT RAIN  62  59  90 SW8       29.89F
FORT CAMPBELL  CLOUDY    65  49  55 S6        29.91F


...CENTRAL ARKANSAS...

CITY           SKY/WX    TMP DP  RH WIND       PRES   REMARKS
LITTLE ROCK    CLEAR     65  60  84 S9        29.88F


SKY/WX REPORTED AS FAIR MEANS FEW OR NO CLOUDS BELOW
12 THOUSAND FEET.



USA.gov is the U.S. government's official web portal to all federal, state and local government web resources and services.